Regional Weather Roundup
Issued by NWS

Home | Current Version | Previous Version | Text Only | Print | Product List | Glossary Off
Versions: 1 2 3 4 5 6 7 8 9 10 11 12 13 14 15 16 17 18 19 20 21 22 23 24 25 26 27 28 29 30 31 32 33 34 35 36 37 38 39 40 41 42 43 44 45 46 47 48 49 50

140
ASUS43 KMPX 130310
RWRMN
WEATHER ROUNDUP FOR MINNESOTA
NATIONAL WEATHER SERVICE TWIN CITIES/CHANHASSEN MN
900 PM CST FRI FEB 12 2016


NOTE: "FAIR" INDICATES FEW OR NO CLOUDS BELOW 12,000 FEET WITH NO
SIGNIFICANT WEATHER AND/OR OBSTRUCTIONS TO VISIBILITY. N/A MEANS
CURRENT SKY AND/OR WEATHER CONDITIONS ARE NOT AVAILABLE.

MNZ060>063-068>070-130400-
   Twin Cities Metro

CITY           SKY/WX    TMP DP  RH WIND       PRES   REMARKS
TWIN CITIES    CLEAR      4 -11  50 NW13      30.57R WCI -13
ST PAUL        CLEAR      5 -11  47 NW12      30.59R WCI -11
CRYSTAL        CLEAR      3 -10  54 NW10      30.56S WCI -12
BLAINE         CLEAR      5  -9  51 NW7       30.55R WCI  -7
LAKEVILLE      CLEAR      0  -9  65 NW10      30.55F WCI -17
EDEN PRAIRIE   CLEAR      4 -10  52 NW14      30.56S WCI -14
SOUTH ST PAUL  CLEAR      6 -12  44 NW8       30.56S WCI  -7
LAKE ELMO      FAIR       3 -11  51 CALM      30.56S
$$
MNZ001>005-007-008-013>017-022>024-027-028-130400-
   Northwest Minnesota

CITY           SKY/WX    TMP DP  RH WIND       PRES   REMARKS
BEMIDJI        CLOUDY   -13 -19  75 NW8       30.56R WCI -30
HALLOCK        CLOUDY    -9 -17  70 CALM      30.65F
ROSEAU         CLOUDY   -11 -18  70 W8        30.61S WCI -28
WARROAD        CLOUDY   -11 -20  64 W7        30.59F WCI -26
THIEF RVR FALL CLOUDY    -9 N/A N/A NW7       30.62F WCI -24
CROOKSTON      CLOUDY    -8 -13  77 NW5       30.68S WCI -19
FOSSTON          N/A    -17 -20  83 W3        30.60F
DETROIT LAKES  CLOUDY    -8 -13  77 NW6       30.61R WCI -21
MOORHEAD       PTCLDY    -6 -11  77 NW7       30.68S WCI -20
PARK RAPIDS    CLOUDY   -12 -19  71 NW9       30.56R WCI -30
MAHNOMEN       FAIR     -13 -18  79 CALM      30.62S
$$
MNZ006-009>011-018-025>026-130400-
   North Central Minnesota

CITY           SKY/WX    TMP DP  RH WIND       PRES   REMARKS
BAUDETTE       CLOUDY   -12 -22  61 NW9       30.55R WCI -30
FLAG ISLAND    CLOUDY   -13 -20  70 NW6       30.57S WCI -27
INTL FALLS     CLOUDY   -10 -20  61 NW9       30.52S WCI -27
WASKISH        CLOUDY   -11 -18  70 W5        30.56F WCI -23
LONGVILLE      CLOUDY    -8 -17  65 W8        30.55R WCI -23
GRAND RAPIDS   CLOUDY    -8 -18  59 NW12      30.50R WCI -27
CRANE LAKE     CLEAR    -11 -18  70 NW2       30.52S
ORR            CLEAR    -11 -20  64 CALM      30.46S
COOK           CLEAR     -9 -18  64 W7        30.49R WCI -24
WALKER         FAIR     -10 -17  71 W7        30.56R WCI -25
$$
MNZ012-019>021-037-130400-
   Northeast Minnesota

CITY           SKY/WX    TMP DP  RH WIND       PRES   REMARKS
DULUTH         CLEAR     -5 -18  53 NW13      30.44R WCI -24
ELY            CLEAR    -11 -18  70 NW7       30.44R WCI -26
HIBBING        CLEAR     -9 -19  61 NW15      30.48R WCI -31
EVELETH        CLEAR     -6 -18  54 NW10      30.48R WCI -23
DULUTH HARBOR  CLEAR      1 -17  42 NW13G22   30.56R WCI -16
TWO HARBORS    CLEAR     -2 -17  50 NW8G21    30.44R WCI -17
SILVER BAY     CLEAR     -4 -18  50 NW6       30.43R WCI -16
GRAND MARAIS     N/A     -3 -14  59 VRB3      30.46R
G MARAIS ARPRT CLEAR    -11 -20  64 NW13G24   30.28R WCI -32
$$
MNZ029>031-032-039>041-046>048-054>057-064-130400-
   West Central Minnesota

CITY           SKY/WX    TMP DP  RH WIND       PRES   REMARKS
FERGUS FALLS   CLOUDY    -6 -11  77 N3        30.68S
WHEATON        CLOUDY    -6  -9  84 NW6       30.68S WCI -18
MORRIS         CLOUDY    -2  -8  78 NW12      30.62S WCI -20
ALEXANDRIA     CLOUDY    -5 -14  65 NW10      30.58R WCI -23
ELBOW LAKE     FAIR      -4 -10  77 NW9       30.63S WCI -20
WADENA         CLOUDY    -9 -17  70 NW9       30.58R WCI -27
GLENWOOD       CLOUDY    -6 -11  77 NW9       30.59R WCI -22
APPLETON       CLOUDY     0  -8  71 NW10      30.65S WCI -17
BENSON         CLOUDY    -2  -9  71 N5        30.62S WCI -12
ORTONVILLE     CLOUDY    -4 -11  71 NW8       30.64S WCI -19
MADISON        CLOUDY     0  -8  71 NW9       30.66S WCI -16
WILLMAR        FAIR       1  -8  66 N12       30.61R WCI -15
$$
MNZ033>034-036-042>043-049>051-058-059-130400-
   Central Minnesota

CITY           SKY/WX    TMP DP  RH WIND       PRES   REMARKS
ST CLOUD       CLOUDY    -2 -12  62 NW14      30.58R WCI -21
SAUK CENTRE    FAIR      -5 -14  64 NW10      30.59R WCI -22
PAYNESVILLE    CLOUDY    -1 -12  61 NW13      30.60R WCI -20
AITKIN         CLOUDY    -2 -18  46 CALM      30.53S
PINE RIVER     CLOUDY    -8 -15  71 NW8       30.57S WCI -23
BRAINERD       CLOUDY    -4 -16  56 NW14      30.55S WCI -24
STAPLES        CLOUDY    -9 -17  70 NW9       30.58R WCI -27
LONG PRAIRIE   FAIR      -6 -15  65 NW9       30.58R WCI -22
LITTLE FALLS   CLOUDY    -2 -13  60 NW8       30.58R WCI -17
LITCHFIELD     CLOUDY     1  -9  60 NW9G17    30.59R WCI -14
BUFFALO        CLEAR      1 -11  56 W8        30.59R WCI -13
MAPLE LAKE     CLEAR      1  -9  62 NW9       30.58S WCI -14
$$
MNZ037-044-045-052-053-130400-
   East Central Minnesota

CITY           SKY/WX    TMP DP  RH WIND       PRES   REMARKS
PRINCETON      CLEAR      1 -11  55 W9        30.55S WCI -14
MORA           CLEAR      0 -15  50 NW5       30.56S WCI -10
CAMBRIDGE      CLEAR      1 -11  55 CALM      30.54S
RUSH CITY      MOCLDY     1 -14  50 NW8       30.55S WCI -13
MOOSE LAKE     CLEAR     -2 -17  50 NW7       30.51S WCI -16
HINCKLEY       FAIR       1 -13  51 NW6       30.53S WCI -10
CLOQUET        CLEAR     -6 -18  54 W7        30.48R WCI -20
MCGREGOR       CLEAR     -4 -15  59 NW9       30.53S WCI -20
$$
MNZ071>073-080-081-089-090-097-098-130400-
   Southwest Minnesota

CITY           SKY/WX    TMP DP  RH WIND       PRES   REMARKS
MONTEVIDEO     CLOUDY    -2  -8  78 N8        30.66R WCI -17
GRANITE FALLS  CLOUDY     1  -4  77 W12       30.66R WCI -16
CANBY          PTCLDY     1  -5  75 W8        30.66R WCI -13
REDWOOD FALLS  CLOUDY     1  -7  68 NW10      30.63R WCI -15
OLIVIA         CLOUDY     3  -6  66 NW12      30.62R WCI -13
PIPESTONE      CLOUDY     1 -11  55 N7        30.56S WCI -11
WINDOM         CLOUDY     0  -6  78 NW18      30.57R WCI -22
WORTHINGTON    CLOUDY     0  -9  65 N15       30.58R WCI -20
JACKSON        CLOUDY     1  -6  71 NW14      30.57R WCI -17
TRACY          CLOUDY     0  -6  76 NW12      30.62R WCI -17
SLAYTON        CLOUDY    -2  -8  78 NW12      30.58R WCI -20
$$
MNZ065>067-074>077-082>085-091>093-130400-
   South Central Minnesota

CITY           SKY/WX    TMP DP  RH WIND       PRES   REMARKS
MANKATO        CLOUDY     3  -8  60 NW13      30.57S WCI -14
NEW ULM        CLOUDY     1  -8  66 NW14      30.60R WCI -17
ST JAMES       CLOUDY     1  -4  78 W15       30.61R WCI -18
FAIRMONT       CLOUDY     1  -6  71 NW14      30.56S WCI -17
GLENCOE        CLOUDY     3  -7  63 NW10      30.58R WCI -12
FARIBAULT      CLOUDY     1  -9  60 W7        30.55S WCI -11
OWATONNA       CLOUDY     0  -9  65 W7        30.54S WCI -13
WASECA         CLOUDY     3  -6  66 NW9       30.57R WCI -11
ALBERT LEA     CLOUDY     3  -8  60 NW8       30.53R WCI -10
$$
MNZ078>079-086>088-094>096-130400-
   Southeast Minnesota

CITY           SKY/WX    TMP DP  RH WIND       PRES   REMARKS
ROCHESTER      CLOUDY    -1 -11  62 NW9       30.50R WCI -16
RED WING       CLEAR      3 -17  39 NW6       30.55R WCI  -8
STANTON        CLOUDY     1 -11  57 NW8       30.55R WCI -13
DODGE CENTER   CLOUDY     0  -9  65 NW10      30.50S WCI -17
WINONA         CLEAR      9  -8  47 NW10      30.56R WCI  -6
AUSTIN         CLOUDY     1  -8  66 NW12      30.52R WCI -15
PRESTON        CLOUDY     0 -12  58 NW9       30.50R WCI -16
$$
ABBREVIATIONS USED IN REMARKS
   TC - TEMPERATURES IN CELSIUS
  WCI - WIND CHILL INDEX
   HX - HEAT INDEX
  VSB - VISIBILITY
$$




USA.gov is the U.S. government's official web portal to all federal, state and local government web resources and services.